Year,Month,Day,Hour,Minute,Value (Times are PST for temperature in C)
2017,02,13,00,00,2.90
2017,02,13,00,01,2.90
2017,02,13,00,02,2.90
2017,02,13,00,03,2.90
2017,02,13,00,04,2.90
2017,02,13,00,05,2.90
2017,02,13,00,06,2.90
2017,02,13,00,07,2.90
2017,02,13,00,08,2.90
2017,02,13,00,09,2.90
2017,02,13,00,10,2.90
2017,02,13,00,11,3.00
2017,02,13,00,12,3.00
2017,02,13,00,13,3.00
2017,02,13,00,14,3.00
2017,02,13,00,15,3.10
2017,02,13,00,16,3.10
2017,02,13,00,17,3.10
2017,02,13,00,18,3.10
2017,02,13,00,19,3.10
2017,02,13,00,20,3.20
2017,02,13,00,21,3.20
2017,02,13,00,22,3.20
2017,02,13,00,23,3.20
2017,02,13,00,24,3.30
2017,02,13,00,25,3.30
2017,02,13,00,26,3.30
2017,02,13,00,27,3.40
2017,02,13,00,28,3.40
2017,02,13,00,29,3.40
2017,02,13,00,30,3.40
2017,02,13,00,31,3.40
2017,02,13,00,32,3.40
2017,02,13,00,33,3.40
2017,02,13,00,34,3.30
2017,02,13,00,35,3.30
2017,02,13,00,36,3.30
2017,02,13,00,37,3.30
2017,02,13,00,38,3.30
2017,02,13,00,39,3.30
2017,02,13,00,40,3.20
2017,02,13,00,41,3.20
2017,02,13,00,42,3.20
2017,02,13,00,43,3.20
2017,02,13,00,44,3.20
2017,02,13,00,45,3.20
2017,02,13,00,46,3.20
2017,02,13,00,47,3.20
2017,02,13,00,48,3.20
2017,02,13,00,49,3.20
2017,02,13,00,50,3.20
2017,02,13,00,51,3.20
2017,02,13,00,52,3.20
2017,02,13,00,53,3.20
2017,02,13,00,54,3.20
2017,02,13,00,55,3.20
2017,02,13,00,56,3.20
2017,02,13,00,57,3.20
2017,02,13,00,58,3.20
2017,02,13,00,59,3.10
2017,02,13,01,00,3.20
2017,02,13,01,01,3.20
2017,02,13,01,02,3.20
2017,02,13,01,03,3.20
2017,02,13,01,04,3.20
2017,02,13,01,05,3.20
2017,02,13,01,06,3.10
2017,02,13,01,07,3.10
2017,02,13,01,08,3.10
2017,02,13,01,09,3.10
2017,02,13,01,10,3.10
2017,02,13,01,11,3.10
2017,02,13,01,12,3.20
2017,02,13,01,13,3.20
2017,02,13,01,14,3.10
2017,02,13,01,15,3.20
2017,02,13,01,16,3.20
2017,02,13,01,17,3.20
2017,02,13,01,18,3.20
2017,02,13,01,19,3.20
2017,02,13,01,20,3.20
2017,02,13,01,21,3.10
2017,02,13,01,22,3.10
2017,02,13,01,23,3.10
2017,02,13,01,24,3.10
2017,02,13,01,25,3.00
2017,02,13,01,26,3.00
2017,02,13,01,27,2.90
2017,02,13,01,28,2.90
2017,02,13,01,29,2.80
2017,02,13,01,30,2.80
2017,02,13,01,31,2.80
2017,02,13,01,32,2.70
2017,02,13,01,33,2.70
2017,02,13,01,34,2.70
2017,02,13,01,35,2.60
2017,02,13,01,36,2.60
2017,02,13,01,37,2.60
2017,02,13,01,38,2.50
2017,02,13,01,39,2.50
2017,02,13,01,40,2.50
2017,02,13,01,41,2.40
2017,02,13,01,42,2.40
2017,02,13,01,43,2.40
2017,02,13,01,44,2.40
2017,02,13,01,45,2.40
2017,02,13,01,46,2.40
2017,02,13,01,47,2.40
2017,02,13,01,48,2.40
2017,02,13,01,49,2.40
2017,02,13,01,50,2.50
2017,02,13,01,51,2.50
2017,02,13,01,52,2.50
2017,02,13,01,53,2.60
2017,02,13,01,54,2.60
2017,02,13,01,55,2.60
2017,02,13,01,56,2.60
2017,02,13,01,57,2.60
2017,02,13,01,58,2.60
2017,02,13,01,59,2.60
2017,02,13,02,00,2.60
2017,02,13,02,01,2.60
2017,02,13,02,02,2.60
2017,02,13,02,03,2.60
2017,02,13,02,04,2.60
2017,02,13,02,05,2.70
2017,02,13,02,06,2.70
2017,02,13,02,07,2.70
2017,02,13,02,08,2.70
2017,02,13,02,09,2.80
2017,02,13,02,10,2.80
2017,02,13,02,11,2.80
2017,02,13,02,12,2.80
2017,02,13,02,13,2.80
2017,02,13,02,14,2.80
2017,02,13,02,15,2.90
2017,02,13,02,16,2.90
2017,02,13,02,17,3.00
2017,02,13,02,18,3.00
2017,02,13,02,19,3.10
2017,02,13,02,20,3.20
2017,02,13,02,21,3.30
2017,02,13,02,22,3.40
2017,02,13,02,23,3.50
2017,02,13,02,24,3.60
2017,02,13,02,25,3.60
2017,02,13,02,26,3.60
2017,02,13,02,27,3.70
2017,02,13,02,28,3.70
2017,02,13,02,29,3.70
2017,02,13,02,30,3.70
2017,02,13,02,31,3.70
2017,02,13,02,32,3.70
2017,02,13,02,33,3.70
2017,02,13,02,34,3.70
2017,02,13,02,35,3.70
2017,02,13,02,36,3.70
2017,02,13,02,37,3.60
2017,02,13,02,38,3.60
2017,02,13,02,39,3.50
2017,02,13,02,40,3.50
2017,02,13,02,41,3.40
2017,02,13,02,42,3.40
2017,02,13,02,43,3.40
2017,02,13,02,44,3.40
2017,02,13,02,45,3.40
2017,02,13,02,46,3.30
2017,02,13,02,47,3.30
2017,02,13,02,48,3.30
2017,02,13,02,49,3.30
2017,02,13,02,50,3.30
2017,02,13,02,51,3.20
2017,02,13,02,52,3.20
2017,02,13,02,53,3.20
2017,02,13,02,54,3.20
2017,02,13,02,55,3.20
2017,02,13,02,56,3.20
2017,02,13,02,57,3.10
2017,02,13,02,58,3.10
2017,02,13,02,59,3.10
2017,02,13,03,00,3.10
2017,02,13,03,01,3.10
2017,02,13,03,02,3.00
2017,02,13,03,03,3.00
2017,02,13,03,04,3.00
2017,02,13,03,05,3.00
2017,02,13,03,06,2.90
2017,02,13,03,07,2.90
2017,02,13,03,08,2.90
2017,02,13,03,09,2.90
2017,02,13,03,10,2.90
2017,02,13,03,11,2.90
2017,02,13,03,12,2.90
2017,02,13,03,13,2.90
2017,02,13,03,14,2.90
2017,02,13,03,15,2.90
2017,02,13,03,16,2.90
2017,02,13,03,17,2.90
2017,02,13,03,18,2.90
2017,02,13,03,19,2.90
2017,02,13,03,20,2.90
2017,02,13,03,21,2.90
2017,02,13,03,22,2.90
2017,02,13,03,23,3.00
2017,02,13,03,24,3.00
2017,02,13,03,25,3.00
2017,02,13,03,26,3.00
2017,02,13,03,27,3.10
2017,02,13,03,28,3.10
2017,02,13,03,29,3.10
2017,02,13,03,30,3.10
2017,02,13,03,31,3.10
2017,02,13,03,32,3.10
2017,02,13,03,33,3.10
2017,02,13,03,34,3.10
2017,02,13,03,35,3.10
2017,02,13,03,36,3.20
2017,02,13,03,37,3.20
2017,02,13,03,38,3.20
2017,02,13,03,39,3.20
2017,02,13,03,40,3.20
2017,02,13,03,41,3.20
2017,02,13,03,42,3.20
2017,02,13,03,43,3.20
2017,02,13,03,44,3.20
2017,02,13,03,45,3.20
2017,02,13,03,46,3.20
2017,02,13,03,47,3.20
2017,02,13,03,48,3.20
2017,02,13,03,49,3.20
2017,02,13,03,50,3.20
2017,02,13,03,51,3.20
2017,02,13,03,52,3.20
2017,02,13,03,53,3.20
2017,02,13,03,54,3.20
2017,02,13,03,55,3.20
2017,02,13,03,56,3.20
2017,02,13,03,57,3.20
2017,02,13,03,58,3.20
2017,02,13,03,59,3.20
2017,02,13,04,00,3.20
2017,02,13,04,01,3.20
2017,02,13,04,02,3.20
2017,02,13,04,03,3.20
2017,02,13,04,04,3.20
2017,02,13,04,05,3.20
2017,02,13,04,06,3.20
2017,02,13,04,07,3.30
2017,02,13,04,08,3.30
2017,02,13,04,09,3.30
2017,02,13,04,10,3.30
2017,02,13,04,11,3.30
2017,02,13,04,12,3.30
2017,02,13,04,13,3.30
2017,02,13,04,14,3.40
2017,02,13,04,15,3.40
2017,02,13,04,16,3.40
2017,02,13,04,17,3.40
2017,02,13,04,18,3.40
2017,02,13,04,19,3.40
2017,02,13,04,20,3.40
2017,02,13,04,21,3.40
2017,02,13,04,22,3.40
2017,02,13,04,23,3.30
2017,02,13,04,24,3.30
2017,02,13,04,25,3.30
2017,02,13,04,26,3.20
2017,02,13,04,27,3.20
2017,02,13,04,28,3.20
2017,02,13,04,29,3.20
2017,02,13,04,30,3.20
2017,02,13,04,31,3.20
2017,02,13,04,32,3.30
2017,02,13,04,33,3.30
2017,02,13,04,34,3.20
2017,02,13,04,35,3.30
2017,02,13,04,36,3.30
2017,02,13,04,37,3.30
2017,02,13,04,38,3.30
2017,02,13,04,39,3.30
2017,02,13,04,40,3.30
2017,02,13,04,41,3.30
2017,02,13,04,42,3.30
2017,02,13,04,43,3.30
2017,02,13,04,44,3.40
2017,02,13,04,45,3.40
2017,02,13,04,46,3.40
2017,02,13,04,47,3.40
2017,02,13,04,48,3.50
2017,02,13,04,49,3.50
2017,02,13,04,50,3.60
2017,02,13,04,51,3.60
2017,02,13,04,52,3.60
2017,02,13,04,53,3.60
2017,02,13,04,54,3.60
2017,02,13,04,55,3.50
2017,02,13,04,56,3.50
2017,02,13,04,57,3.50
2017,02,13,04,58,3.60
2017,02,13,04,59,3.60
2017,02,13,05,00,3.60
2017,02,13,05,01,3.60
2017,02,13,05,02,3.60
2017,02,13,05,03,3.60
2017,02,13,05,04,3.60
2017,02,13,05,05,3.60
2017,02,13,05,06,3.60
2017,02,13,05,07,3.60
2017,02,13,05,08,3.60
2017,02,13,05,09,3.60
2017,02,13,05,10,3.60
2017,02,13,05,11,3.60
2017,02,13,05,12,3.60
2017,02,13,05,13,3.60
2017,02,13,05,14,3.60
2017,02,13,05,15,3.60
2017,02,13,05,16,3.60
2017,02,13,05,17,3.50
2017,02,13,05,18,3.50
2017,02,13,05,19,3.60
2017,02,13,05,20,3.60
2017,02,13,05,21,3.60
2017,02,13,05,22,3.70
2017,02,13,05,23,3.70
2017,02,13,05,24,3.70
2017,02,13,05,25,3.70
2017,02,13,05,26,3.70
2017,02,13,05,27,3.70
2017,02,13,05,28,3.70
2017,02,13,05,29,3.70
2017,02,13,05,30,3.70
2017,02,13,05,31,3.70
2017,02,13,05,32,3.70
2017,02,13,05,33,3.70
2017,02,13,05,34,3.70
2017,02,13,05,35,3.70
2017,02,13,05,36,3.70
2017,02,13,05,37,3.80
2017,02,13,05,38,3.80
2017,02,13,05,39,3.80
2017,02,13,05,40,3.90
2017,02,13,05,41,3.90
2017,02,13,05,42,3.90
2017,02,13,05,43,4.00
2017,02,13,05,44,4.00
2017,02,13,05,45,4.00
2017,02,13,05,46,4.00
2017,02,13,05,47,4.00
2017,02,13,05,48,4.00
2017,02,13,05,49,4.00
2017,02,13,05,50,4.10
2017,02,13,05,51,4.10
2017,02,13,05,52,4.10
2017,02,13,05,53,4.10
2017,02,13,05,54,4.10
2017,02,13,05,55,4.20
2017,02,13,05,56,4.20
2017,02,13,05,57,4.20
2017,02,13,05,58,4.20
2017,02,13,05,59,4.20
2017,02,13,06,00,4.20
2017,02,13,06,01,4.30
2017,02,13,06,02,4.30
2017,02,13,06,03,4.30
2017,02,13,06,04,4.30
2017,02,13,06,05,4.30
2017,02,13,06,06,4.30
2017,02,13,06,07,4.30
2017,02,13,06,08,4.20
2017,02,13,06,09,4.20
2017,02,13,06,10,4.20
2017,02,13,06,11,4.20
2017,02,13,06,12,4.20
2017,02,13,06,13,4.20
2017,02,13,06,14,4.20
2017,02,13,06,15,4.20
2017,02,13,06,16,4.20
2017,02,13,06,17,4.20
2017,02,13,06,18,4.20
2017,02,13,06,19,4.20
2017,02,13,06,20,4.20
2017,02,13,06,21,4.20
2017,02,13,06,22,4.20
2017,02,13,06,23,4.20
2017,02,13,06,24,4.20
2017,02,13,06,25,4.20
2017,02,13,06,26,4.20
2017,02,13,06,27,4.20
2017,02,13,06,28,4.20
2017,02,13,06,29,4.20
2017,02,13,06,30,4.20
2017,02,13,06,31,4.30
2017,02,13,06,32,4.30
2017,02,13,06,33,4.30
2017,02,13,06,34,4.30
2017,02,13,06,35,4.30
2017,02,13,06,36,4.30
2017,02,13,06,37,4.30
2017,02,13,06,38,4.30
2017,02,13,06,39,4.30
2017,02,13,06,40,4.30
2017,02,13,06,41,4.30
2017,02,13,06,42,4.30
2017,02,13,06,43,4.30
2017,02,13,06,44,4.30
2017,02,13,06,45,4.30
2017,02,13,06,46,4.30
2017,02,13,06,47,4.30
2017,02,13,06,48,4.30
2017,02,13,06,49,4.30
2017,02,13,06,50,4.30
2017,02,13,06,51,4.20
2017,02,13,06,52,4.20
2017,02,13,06,53,4.20
2017,02,13,06,54,4.20
2017,02,13,06,55,4.20
2017,02,13,06,56,4.20
2017,02,13,06,57,4.20
2017,02,13,06,58,4.10
2017,02,13,06,59,4.10
2017,02,13,07,00,4.00
2017,02,13,07,01,4.00
2017,02,13,07,02,3.90
2017,02,13,07,03,3.80
2017,02,13,07,04,3.80
2017,02,13,07,05,3.80
2017,02,13,07,06,3.80
2017,02,13,07,07,3.70
2017,02,13,07,08,3.70
2017,02,13,07,09,3.70
2017,02,13,07,10,3.70
2017,02,13,07,11,3.70
2017,02,13,07,12,3.70
2017,02,13,07,13,3.70
2017,02,13,07,14,3.70
2017,02,13,07,15,3.70
2017,02,13,07,16,3.70
2017,02,13,07,17,3.70
2017,02,13,07,18,3.80
2017,02,13,07,19,3.80
2017,02,13,07,20,3.80
2017,02,13,07,21,3.80
2017,02,13,07,22,3.80
2017,02,13,07,23,3.80
2017,02,13,07,24,3.80
2017,02,13,07,25,3.80
2017,02,13,07,26,3.80
2017,02,13,07,27,3.80
2017,02,13,07,28,3.80
2017,02,13,07,29,3.80
2017,02,13,07,30,3.80
2017,02,13,07,31,3.80
2017,02,13,07,32,3.80
2017,02,13,07,33,3.80
2017,02,13,07,34,3.70
2017,02,13,07,35,3.70
2017,02,13,07,36,3.70
2017,02,13,07,37,3.70
2017,02,13,07,38,3.70
2017,02,13,07,39,3.70
2017,02,13,07,40,3.70
2017,02,13,07,41,3.70
2017,02,13,07,42,3.70
2017,02,13,07,43,3.70
2017,02,13,07,44,3.70
2017,02,13,07,45,3.70
2017,02,13,07,46,3.70
2017,02,13,07,47,3.70
2017,02,13,07,48,3.70
2017,02,13,07,49,3.70
2017,02,13,07,50,3.70
2017,02,13,07,51,3.60
2017,02,13,07,52,3.60
2017,02,13,07,53,3.60
2017,02,13,07,54,3.60
2017,02,13,07,55,3.60
2017,02,13,07,56,3.70
2017,02,13,07,57,3.70
2017,02,13,07,58,3.70
2017,02,13,07,59,3.80
2017,02,13,08,00,3.80
2017,02,13,08,01,3.80
2017,02,13,08,02,3.80
2017,02,13,08,03,3.90
2017,02,13,08,04,3.90
2017,02,13,08,05,4.00
2017,02,13,08,06,4.00
2017,02,13,08,07,4.00
2017,02,13,08,08,4.10
2017,02,13,08,09,4.10
2017,02,13,08,10,4.20
2017,02,13,08,11,4.20
2017,02,13,08,12,4.20
2017,02,13,08,13,4.20
2017,02,13,08,14,4.30
2017,02,13,08,15,4.30
2017,02,13,08,16,4.30
2017,02,13,08,17,4.30
2017,02,13,08,18,4.40
2017,02,13,08,19,4.40
2017,02,13,08,20,4.40
2017,02,13,08,21,4.40
2017,02,13,08,22,4.40
2017,02,13,08,23,4.40
2017,02,13,08,24,4.40
2017,02,13,08,25,4.50
2017,02,13,08,26,4.50
2017,02,13,08,27,4.60
2017,02,13,08,28,4.60
2017,02,13,08,29,4.70
2017,02,13,08,30,4.70
2017,02,13,08,31,4.80
2017,02,13,08,32,4.80
2017,02,13,08,33,4.90
2017,02,13,08,34,4.90
2017,02,13,08,35,5.00
2017,02,13,08,36,5.00
2017,02,13,08,37,5.10
2017,02,13,08,38,5.10
2017,02,13,08,39,5.20
2017,02,13,08,40,5.20
2017,02,13,08,41,5.30
2017,02,13,08,42,5.30
2017,02,13,08,43,5.30
2017,02,13,08,44,5.30
2017,02,13,08,45,5.40
2017,02,13,08,46,5.50
2017,02,13,08,47,5.50
2017,02,13,08,48,5.60
2017,02,13,08,49,5.60
2017,02,13,08,50,5.70
2017,02,13,08,51,5.70
2017,02,13,08,52,5.70
2017,02,13,08,53,5.70
2017,02,13,08,54,5.80
2017,02,13,08,55,5.80
2017,02,13,08,56,5.80
2017,02,13,08,57,5.80
2017,02,13,08,58,5.90
2017,02,13,08,59,5.90
2017,02,13,09,00,5.90
2017,02,13,09,01,5.90
2017,02,13,09,02,5.90
2017,02,13,09,03,5.90
2017,02,13,09,04,5.90
2017,02,13,09,05,5.90
2017,02,13,09,06,5.90
2017,02,13,09,07,5.90
2017,02,13,09,08,5.90
2017,02,13,09,09,5.80
2017,02,13,09,10,5.80
2017,02,13,09,11,5.80
2017,02,13,09,12,5.80
2017,02,13,09,13,5.80
2017,02,13,09,14,5.70
2017,02,13,09,15,5.70
2017,02,13,09,16,5.70
2017,02,13,09,17,5.70
2017,02,13,09,18,5.80
2017,02,13,09,19,5.80
2017,02,13,09,20,5.80
2017,02,13,09,21,5.90
2017,02,13,09,22,5.90
2017,02,13,09,23,5.90
2017,02,13,09,24,5.80
2017,02,13,09,25,5.80
2017,02,13,09,26,5.80
2017,02,13,09,27,5.80
2017,02,13,09,28,5.80
2017,02,13,09,29,5.80
2017,02,13,09,30,5.80
2017,02,13,09,31,5.80
2017,02,13,09,32,5.80
2017,02,13,09,33,5.80
2017,02,13,09,34,5.80
2017,02,13,09,35,5.80
2017,02,13,09,36,5.90
2017,02,13,09,37,5.90
2017,02,13,09,38,6.00
2017,02,13,09,39,6.10
2017,02,13,09,40,6.10
2017,02,13,09,41,6.20
2017,02,13,09,42,6.30
2017,02,13,09,43,6.30
2017,02,13,09,44,6.40
2017,02,13,09,45,6.40
2017,02,13,09,46,6.40
2017,02,13,09,47,6.50
2017,02,13,09,48,6.50
2017,02,13,09,49,6.60
2017,02,13,09,50,6.60
2017,02,13,09,51,6.70
2017,02,13,09,52,6.80
2017,02,13,09,53,6.90
2017,02,13,09,54,7.00
2017,02,13,09,55,7.10
2017,02,13,09,56,7.20
2017,02,13,09,57,7.30
2017,02,13,09,58,7.40
2017,02,13,09,59,7.50
2017,02,13,10,00,7.50
2017,02,13,10,01,7.60
2017,02,13,10,02,7.70
2017,02,13,10,03,7.80
2017,02,13,10,04,7.80
2017,02,13,10,05,7.90
2017,02,13,10,06,7.90
2017,02,13,10,07,7.90
2017,02,13,10,08,7.90
2017,02,13,10,09,7.90
2017,02,13,10,10,7.90
2017,02,13,10,11,8.00
2017,02,13,10,12,8.00
2017,02,13,10,13,8.10
2017,02,13,10,14,8.10
2017,02,13,10,15,8.10
2017,02,13,10,16,8.20
2017,02,13,10,17,8.20
2017,02,13,10,18,8.30
2017,02,13,10,19,8.40
2017,02,13,10,20,8.50
2017,02,13,10,21,8.60
2017,02,13,10,22,8.60
2017,02,13,10,23,8.70
2017,02,13,10,24,8.70
2017,02,13,10,25,8.80
2017,02,13,10,26,8.80
2017,02,13,10,27,8.80
2017,02,13,10,28,8.90
2017,02,13,10,29,8.90
2017,02,13,10,30,8.90
2017,02,13,10,31,9.00
2017,02,13,10,32,9.00
2017,02,13,10,33,9.00
2017,02,13,10,34,9.00
2017,02,13,10,35,9.00
2017,02,13,10,36,9.00
2017,02,13,10,37,9.00
2017,02,13,10,38,9.00
2017,02,13,10,39,9.00
2017,02,13,10,40,9.00
2017,02,13,10,41,9.10
2017,02,13,10,42,9.10
2017,02,13,10,43,9.20
2017,02,13,10,44,9.20
2017,02,13,10,45,9.30
2017,02,13,10,46,9.30
2017,02,13,10,47,9.30
2017,02,13,10,48,9.20
2017,02,13,10,49,9.20
2017,02,13,10,50,9.20
2017,02,13,10,51,9.30
2017,02,13,10,52,9.30
2017,02,13,10,53,9.30
2017,02,13,10,54,9.30
2017,02,13,10,55,9.40
2017,02,13,10,56,9.40
2017,02,13,10,57,9.50
2017,02,13,10,58,9.60
2017,02,13,10,59,9.60
2017,02,13,11,00,9.70
2017,02,13,11,01,9.70
2017,02,13,11,02,9.80
2017,02,13,11,03,9.90
2017,02,13,11,04,9.90
2017,02,13,11,05,9.90
2017,02,13,11,06,10.00
2017,02,13,11,07,10.10
2017,02,13,11,08,10.20
2017,02,13,11,09,10.20
2017,02,13,11,10,10.30
2017,02,13,11,11,10.40
2017,02,13,11,12,10.50
2017,02,13,11,13,10.50
2017,02,13,11,14,10.60
2017,02,13,11,15,10.70
2017,02,13,11,16,10.70
2017,02,13,11,17,10.80
2017,02,13,11,18,10.80
2017,02,13,11,19,10.90
2017,02,13,11,20,10.90
2017,02,13,11,21,10.90
2017,02,13,11,22,11.00
2017,02,13,11,23,11.00
2017,02,13,11,24,11.10
2017,02,13,11,25,11.10
2017,02,13,11,26,11.10
2017,02,13,11,27,11.10
2017,02,13,11,28,11.10
2017,02,13,11,29,11.10
2017,02,13,11,30,11.10
2017,02,13,11,31,11.10
2017,02,13,11,32,11.10
2017,02,13,11,33,11.10
2017,02,13,11,34,11.10
2017,02,13,11,35,11.10
2017,02,13,11,36,11.10
2017,02,13,11,37,11.10
2017,02,13,11,38,11.00
2017,02,13,11,39,11.00
2017,02,13,11,40,11.10
2017,02,13,11,41,11.10
2017,02,13,11,42,11.00
2017,02,13,11,43,11.00
2017,02,13,11,44,11.10
2017,02,13,11,45,11.10
2017,02,13,11,46,11.10
2017,02,13,11,47,11.00
2017,02,13,11,48,11.00
2017,02,13,11,49,10.90
2017,02,13,11,50,11.00
2017,02,13,11,51,11.00
2017,02,13,11,52,11.00
2017,02,13,11,53,11.10
2017,02,13,11,54,11.10
2017,02,13,11,55,11.10
2017,02,13,11,56,11.20
2017,02,13,11,57,11.20
2017,02,13,11,58,11.30
2017,02,13,11,59,11.30
2017,02,13,12,00,11.40
2017,02,13,12,01,11.40
2017,02,13,12,02,11.40
2017,02,13,12,03,11.40
2017,02,13,12,04,11.40
2017,02,13,12,05,11.40
2017,02,13,12,06,11.50
2017,02,13,12,07,11.50
2017,02,13,12,08,11.50
2017,02,13,12,09,11.60
2017,02,13,12,10,11.50
2017,02,13,12,11,11.50
2017,02,13,12,12,11.50
2017,02,13,12,13,11.50
2017,02,13,12,14,11.50
2017,02,13,12,15,11.60
2017,02,13,12,16,11.70
2017,02,13,12,17,11.80
2017,02,13,12,18,11.80
2017,02,13,12,19,11.90
2017,02,13,12,20,12.00
2017,02,13,12,21,12.10
2017,02,13,12,22,12.10
2017,02,13,12,23,12.10
2017,02,13,12,24,12.00
2017,02,13,12,25,12.00
2017,02,13,12,26,12.00
2017,02,13,12,27,12.10
2017,02,13,12,28,12.20
2017,02,13,12,29,12.30
2017,02,13,12,30,12.40
2017,02,13,12,31,12.40
2017,02,13,12,32,12.50
2017,02,13,12,33,12.50
2017,02,13,12,34,12.60
2017,02,13,12,35,12.60
2017,02,13,12,36,12.70
2017,02,13,12,37,12.80
2017,02,13,12,38,12.80
2017,02,13,12,39,12.90
2017,02,13,12,40,12.90
2017,02,13,12,41,13.00
2017,02,13,12,42,13.10
2017,02,13,12,43,13.00
2017,02,13,12,44,13.00
2017,02,13,12,45,12.90
2017,02,13,12,46,12.80
2017,02,13,12,47,12.70
2017,02,13,12,48,12.70
2017,02,13,12,49,12.60
2017,02,13,12,50,12.50
2017,02,13,12,51,12.40
2017,02,13,12,52,12.40
2017,02,13,12,53,12.40
2017,02,13,12,54,12.40
2017,02,13,12,55,12.30
2017,02,13,12,56,12.30
2017,02,13,12,57,12.30
2017,02,13,12,58,12.20
2017,02,13,12,59,12.20
2017,02,13,13,00,12.20
2017,02,13,13,01,12.30
2017,02,13,13,02,12.30
2017,02,13,13,03,12.30
2017,02,13,13,04,12.30
2017,02,13,13,05,12.30
2017,02,13,13,06,12.30
2017,02,13,13,07,12.40
2017,02,13,13,08,12.40
2017,02,13,13,09,12.40
2017,02,13,13,10,12.40
2017,02,13,13,11,12.40
2017,02,13,13,12,12.40
2017,02,13,13,13,12.40
2017,02,13,13,14,12.40
2017,02,13,13,15,12.30
2017,02,13,13,16,12.40
2017,02,13,13,17,12.40
2017,02,13,13,18,12.40
2017,02,13,13,19,12.40
2017,02,13,13,20,12.50
2017,02,13,13,21,12.50
2017,02,13,13,22,12.50
2017,02,13,13,23,12.50
2017,02,13,13,24,12.40
2017,02,13,13,25,12.50
2017,02,13,13,26,12.50
2017,02,13,13,27,12.40
2017,02,13,13,28,12.30
2017,02,13,13,29,12.30
2017,02,13,13,30,12.20
2017,02,13,13,31,12.20
2017,02,13,13,32,12.10
2017,02,13,13,33,12.10
2017,02,13,13,34,12.00
2017,02,13,13,35,12.00
2017,02,13,13,36,12.00
2017,02,13,13,37,12.00
2017,02,13,13,38,12.00
2017,02,13,13,39,12.00
2017,02,13,13,40,11.90
2017,02,13,13,41,11.90
2017,02,13,13,42,11.90
2017,02,13,13,43,11.90
2017,02,13,13,44,11.90
2017,02,13,13,45,11.90
2017,02,13,13,46,11.90
2017,02,13,13,47,11.90
2017,02,13,13,48,11.80
2017,02,13,13,49,11.80
2017,02,13,13,50,11.90
2017,02,13,13,51,11.90
2017,02,13,13,52,11.90
2017,02,13,13,53,11.90
2017,02,13,13,54,11.90
2017,02,13,13,55,11.90
2017,02,13,13,56,11.90
2017,02,13,13,57,11.90
2017,02,13,13,58,11.90
2017,02,13,13,59,11.90
2017,02,13,14,00,11.90
2017,02,13,14,01,12.00
2017,02,13,14,02,12.00
2017,02,13,14,03,12.00
2017,02,13,14,04,12.00
2017,02,13,14,05,12.00
2017,02,13,14,06,12.00
2017,02,13,14,07,12.00
2017,02,13,14,08,12.00
2017,02,13,14,09,12.00
2017,02,13,14,10,12.10
2017,02,13,14,11,12.10
2017,02,13,14,12,12.20
2017,02,13,14,13,12.20
2017,02,13,14,14,12.20
2017,02,13,14,15,12.20
2017,02,13,14,16,12.20
2017,02,13,14,17,12.20
2017,02,13,14,18,12.20
2017,02,13,14,19,12.20
2017,02,13,14,20,12.20
2017,02,13,14,21,12.20
2017,02,13,14,22,12.20
2017,02,13,14,23,12.20
2017,02,13,14,24,12.20
2017,02,13,14,25,12.20
2017,02,13,14,26,12.20
2017,02,13,14,27,12.20
2017,02,13,14,28,12.20
2017,02,13,14,29,12.20
2017,02,13,14,30,12.10
2017,02,13,14,31,12.10
2017,02,13,14,32,12.10
2017,02,13,14,33,12.20
2017,02,13,14,34,12.10
2017,02,13,14,35,12.10
2017,02,13,14,36,12.10
2017,02,13,14,37,12.10
2017,02,13,14,38,12.20
2017,02,13,14,39,12.30
2017,02,13,14,40,12.30
2017,02,13,14,41,12.30
2017,02,13,14,42,12.40
2017,02,13,14,43,12.40
2017,02,13,14,44,12.40
2017,02,13,14,45,12.40
2017,02,13,14,46,12.30
2017,02,13,14,47,12.30
2017,02,13,14,48,12.30
2017,02,13,14,49,12.30
2017,02,13,14,50,12.30
2017,02,13,14,51,12.20
2017,02,13,14,52,12.20
2017,02,13,14,53,12.20
2017,02,13,14,54,12.20
2017,02,13,14,55,12.10
2017,02,13,14,56,12.10
2017,02,13,14,57,12.10
2017,02,13,14,58,12.10
2017,02,13,14,59,12.00
2017,02,13,15,00,11.90
2017,02,13,15,01,12.00
2017,02,13,15,02,12.10
2017,02,13,15,03,12.10
2017,02,13,15,04,12.20
2017,02,13,15,05,12.30
2017,02,13,15,06,12.20
2017,02,13,15,07,12.20
2017,02,13,15,08,12.20
2017,02,13,15,09,12.20
2017,02,13,15,10,12.20
2017,02,13,15,11,12.20
2017,02,13,15,12,12.20
2017,02,13,15,13,12.20
2017,02,13,15,14,12.20
2017,02,13,15,15,12.20
2017,02,13,15,16,12.20
2017,02,13,15,17,12.10
2017,02,13,15,18,12.10
2017,02,13,15,19,12.10
2017,02,13,15,20,12.00
2017,02,13,15,21,12.00
2017,02,13,15,22,12.00
2017,02,13,15,23,11.90
2017,02,13,15,24,11.90
2017,02,13,15,25,11.90
2017,02,13,15,26,11.90
2017,02,13,15,27,11.90
2017,02,13,15,28,11.90
2017,02,13,15,29,11.90
2017,02,13,15,30,11.80
2017,02,13,15,31,11.80
2017,02,13,15,32,11.80
2017,02,13,15,33,11.80
2017,02,13,15,34,11.80
2017,02,13,15,35,11.80
2017,02,13,15,36,11.90
2017,02,13,15,37,11.90
2017,02,13,15,38,11.90
2017,02,13,15,39,11.90
2017,02,13,15,40,11.90
2017,02,13,15,41,12.00
2017,02,13,15,42,12.00
2017,02,13,15,43,12.00
2017,02,13,15,44,12.00
2017,02,13,15,45,12.00
2017,02,13,15,46,12.00
2017,02,13,15,47,12.00
2017,02,13,15,48,12.10
2017,02,13,15,49,12.10
2017,02,13,15,50,12.10
2017,02,13,15,51,12.10
2017,02,13,15,52,12.10
2017,02,13,15,53,12.10
2017,02,13,15,54,12.10
2017,02,13,15,55,12.10
2017,02,13,15,56,12.10
2017,02,13,15,57,12.20
2017,02,13,15,58,12.20
2017,02,13,15,59,12.20
2017,02,13,16,00,12.10
2017,02,13,16,01,12.10
2017,02,13,16,02,12.10
2017,02,13,16,03,12.10
2017,02,13,16,04,12.10
2017,02,13,16,05,12.10
2017,02,13,16,06,12.00
2017,02,13,16,07,11.90
2017,02,13,16,08,11.90
2017,02,13,16,09,11.90
2017,02,13,16,10,11.90
2017,02,13,16,11,11.90
2017,02,13,16,12,11.90
2017,02,13,16,13,11.90
2017,02,13,16,14,11.80
2017,02,13,16,15,11.80
2017,02,13,16,16,11.80
2017,02,13,16,17,11.90
2017,02,13,16,18,11.80
2017,02,13,16,19,11.80
2017,02,13,16,20,11.80
2017,02,13,16,21,11.80
2017,02,13,16,22,11.80
2017,02,13,16,23,11.70
2017,02,13,16,24,11.70
2017,02,13,16,25,11.70
2017,02,13,16,26,11.70
2017,02,13,16,27,11.70
2017,02,13,16,28,11.60
2017,02,13,16,29,11.60
2017,02,13,16,30,11.60
2017,02,13,16,31,11.60
2017,02,13,16,32,11.60
2017,02,13,16,33,11.50
2017,02,13,16,34,11.50
2017,02,13,16,35,11.50
2017,02,13,16,36,11.50
2017,02,13,16,37,11.40
2017,02,13,16,38,11.40
2017,02,13,16,39,11.40
2017,02,13,16,40,11.40
2017,02,13,16,41,11.40
2017,02,13,16,42,11.40
2017,02,13,16,43,11.40
2017,02,13,16,44,11.40
2017,02,13,16,45,11.40
2017,02,13,16,46,11.40
2017,02,13,16,47,11.40
2017,02,13,16,48,11.30
2017,02,13,16,49,11.30
2017,02,13,16,50,11.30
2017,02,13,16,51,11.30
2017,02,13,16,52,11.30
2017,02,13,16,53,11.30
2017,02,13,16,54,11.30
2017,02,13,16,55,11.30
2017,02,13,16,56,11.30
2017,02,13,16,57,11.30
2017,02,13,16,58,11.20
2017,02,13,16,59,11.20
2017,02,13,17,00,11.20
2017,02,13,17,01,11.20
2017,02,13,17,02,11.10
2017,02,13,17,03,11.10
2017,02,13,17,04,11.10
2017,02,13,17,05,11.10
2017,02,13,17,06,11.00
2017,02,13,17,07,11.00
2017,02,13,17,08,10.90
2017,02,13,17,09,10.90
2017,02,13,17,10,10.90
2017,02,13,17,11,10.90
2017,02,13,17,12,10.90
2017,02,13,17,13,10.80
2017,02,13,17,14,10.80
2017,02,13,17,15,10.80
2017,02,13,17,16,10.80
2017,02,13,17,17,10.80
2017,02,13,17,18,10.70
2017,02,13,17,19,10.70
2017,02,13,17,20,10.70
2017,02,13,17,21,10.60
2017,02,13,17,22,10.60
2017,02,13,17,23,10.50
2017,02,13,17,24,10.50
2017,02,13,17,25,10.40
2017,02,13,17,26,10.40
2017,02,13,17,27,10.40
2017,02,13,17,28,10.30
2017,02,13,17,29,10.30
2017,02,13,17,30,10.30
2017,02,13,17,31,10.20
2017,02,13,17,32,10.20
2017,02,13,17,33,10.20
2017,02,13,17,34,10.20
2017,02,13,17,35,10.10
2017,02,13,17,36,10.00
2017,02,13,17,37,10.00
2017,02,13,17,38,9.90
2017,02,13,17,39,9.80
2017,02,13,17,40,9.70
2017,02,13,17,41,9.60
2017,02,13,17,42,9.40
2017,02,13,17,43,9.30
2017,02,13,17,44,9.10
2017,02,13,17,45,9.00
2017,02,13,17,46,8.80
2017,02,13,17,47,8.70
2017,02,13,17,48,8.60